GW1572 Weather Reports


time (UTC)temp
C
wind
direction
speed
KPH
gust
KPH
rain 1hr
cm
rain 24hr
cm
rain mn
cm
humidity
%
barometer
mb
20221203062003 12 78 3.2 4.8 0.00 0.00 0.05 79 1018.9
20221203055601 15 40 6.4 14.5 0.00 0.00 0.00 45 1019.6
20221203035501 10 95 4.8 4.8 0.00 0.00 0.00 70 1021.3
20221203024903 11 87 4.8 4.8 0.00 0.00 0.00 51 1021.6
20221203023104 11 57 1.6 3.2 0.00 0.00 0.00 49 1021.3
20221203015402 11 223 0.0 0.0 0.00 0.00 0.00 57 1022.0
20221203014203 10 106 3.2 3.2 0.00 0.00 0.00 50 1021.3
20221203000902 10 300 3.2 3.2 0.00 0.00 0.00 53 1022.0
20221202231502 7 84 3.2 3.2 0.00 0.00 0.00 63 1022.3
20221202212402 12 106 4.8 4.8 0.00 0.00 0.00 50 1022.6
20221202210903 13 90 0.0 0.0 0.00 0.00 0.00 41 1023.0
20221202204103 13 101 3.2 3.2 0.00 0.00 0.00 40 1023.0
20221202200205 14 71 0.0 0.0 0.00 0.00 0.00 31 1023.3
20221202194104 15 114 3.2 4.8 0.00 0.00 0.00 28 1023.7
20221202190502 15 304 8.0 9.7 0.00 0.00 0.00 29 1024.3
20221202175603 11 277 3.2 4.8 0.00 0.00 0.00 40 1026.0
20221202173403 10 295 3.2 4.8 0.00 0.00 0.00 53 1026.4
20221202170102 8 2 3.2 3.2 0.00 0.00 0.00 52 1027.4
20221202164504 8 298 3.2 4.8 0.00 0.00 0.00 55 1027.7
20221202161709 6 305 1.6 3.2 0.00 0.00 0.00 61 1028.1
20221202145007 1 325 3.2 4.8 0.00 0.00 0.00 75 1029.1
20221202143803 0 338 1.6 3.2 0.00 0.00 0.00 86 1029.4
20221202140209 -1 332 1.6 3.2 0.00 0.00 0.00 84 1029.1
20221202133102 -2 104 0.0 0.0 0.00 0.00 0.00 89 1029.1
20221202131906 -2 104 0.0 0.0 0.00 0.00 0.00 90 1029.4
20221202125403 -3 104 0.0 0.0 0.00 0.00 0.00 91 1029.4
20221202123004 -3 104 0.0 0.0 0.00 0.00 0.00 91 1029.8
20221202113003 -4 105 0.0 0.0 0.00 0.00 0.00 96 1029.8
20221202110604 -5 104 3.2 3.2 0.00 0.00 0.00 97 1029.1
20221202105407 -5 104 1.6 3.2 0.00 0.00 0.00 97 1029.4
20221202095405 -5 104 0.0 0.0 0.00 0.00 0.00 95 1029.4
20221202092603 -5 104 3.2 4.8 0.00 0.00 0.00 96 1029.4
20221202090702 -5 104 3.2 3.2 0.00 0.00 0.00 95 1029.8
20221202085203 -4 104 3.2 4.8 0.00 0.00 0.00 96 1029.4
20221202083704 -4 104 3.2 3.2 0.00 0.00 0.00 96 1029.4